User: anonymous   Login
Location: Unspecified
(0.0000°N, 0.0000°E)
Time: 23:58:45
(UTC+00:00)
Language:

SR - Orbit

View from above orbital plane
View from above orbital plane
View from above satellite
View from above satellite

Ground track
Ground track

The orbit data is extracted from the following two-line orbital elements,

1 00046U 60007B   15063.53289258  .00001915  00000-0  41256-3 0  9997
2 00046 066.6898 224.2894 0207116 132.0697 229.8239 14.48312214859200
Epoch (UTC): 04 March 2015 12:47:21
Eccentricity: 0.0207116
inclination: 66.6898°
perigee height: 584 km
apogee height: 878 km
right ascension of ascending node: 224.2894°
argument of perigee: 132.0697°
revolutions per day: 14.48312214
mean anomaly at epoch: 229.8239°
orbit number at epoch: 85920

The dashed part of the orbit path shows where the satellite is in the earth's shadow,  

DLR